Find Starlink 38359

NORAD ID: 100536 Int'l Des: 2026-200 Owner: SPXS Country: US Constellation: starlink operational

現在のビュー

3D地球を読み込み中...

About Starlink 38359

Starlink 38359 (NORAD 100536) is a starlink constellation satellite launched Sep 2, 2026 by SPXS of US. with a mass of 575.00 kg.

次回通過

Passes for default location (London). Set your location on the main map for personalized predictions.

高度履歴

Loading altitude history...

軌道要素

1 A0536U 26200C 26263.32244865 .00163360 00000-0 77949-3 0 9995
2 A0536 69.9986 135.5456 0004030 269.5069 90.5671 15.82209325 2867
Epoch: Sep 20, 2026 • Age: 14 hours

現在のステータス

高度 325.9 km
遠地点 / 近地点 N/A
速度 7.71 km/s
衛星直下点 3.73°N, 19.36°W
打ち上げ日 Sep 2, 2026
運用期間 18 days
タイプ internet

技術仕様

分類 Payload
質量 575.00 kg
乾燥質量 530.00 kg
長さ 0.30 m
スパン 29.00 m
形状 ? Box + pan
製造者 SPXS
バスタイプ Starlink V2MO
フェーズステータス In Orbit
所有者/国 SPXS/US

Most Searched